Miscellaneous Local Product
Issued by NWS North Platte, NE

Home | Current Version | Previous Version | Text Only | Print | Product List | Glossary On
Versions: 1 2 3 4 5 6 7 8 9 10 11 12 13 14 15 16 17 18 19 20 21 22 23 24 25 26 27 28 29 30 31 32 33 34 35 36 37 38 39 40 41 42 43 44 45 46 47 48 49 50
000
AXUS43 KLBF 271310
MISLBF


WESTERN AND NORTH CENTRAL NEBRASKA HOURLY WEATHER ROUNDUP
NATIONAL WEATHER SERVICE NORTH PLATTE NE
800 AM CDT WED JUL 27 2016

NOTE: "FAIR" INDICATES FEW OR NO CLOUDS BELOW 12,000 FEET WITH NO
SIGNIFICANT WEATHER AND/OR OBSTRUCTIONS TO VISIBILITY.

NOTE: STATIONS NOT REPORTING VARIABLES SUCH AS SKY/WEATHER OR
PRESSURE ARE PROVIDED BY RAWS AND APRS NETWORKS AND ARE NOT UNDER
NATIONAL WEATHER SERVICE QUALITY CONTROL.

...OBSERVATIONS IN AND NEAR THE EASTERN PANHANDLE OF NEBRASKA...

CITY           SKY/WX    TMP DP  RH WIND       PRES   REMARKS
PINE RIDGE     CLOUDY    62  61  96 SW10      30.16R
CHADRON        LGT RAIN  66  62  87 W18G26    30.22R FOG
ALLIANCE       CLOUDY    62  58  86 SW7       30.18R
SIDNEY         CLOUDY    60  57  89 E10       30.19R
CRESCENT LAKE    N/A     64  58  82 SE5G13      N/A
$$

...OBSERVATIONS IN NORTHERN NEBRASKA AND FAR SOUTHERN SOUTH DAKOTA...

CITY           SKY/WX    TMP DP  RH WIND       PRES   REMARKS
WINNER         FAIR      68  59  73 W7        30.04R
VALENTINE      CLOUDY    63  58  83 MISG      30.05F
THEDFORD       CLOUDY    64  61  91 CALM      30.07S
AINSWORTH      CLOUDY    63  61  94 W7        30.06S
O`NEILL        SUNNY     66  61  85 NW5       30.07R
ORD            SUNNY     64  59  83 NW9       30.01R
BROKEN BOW     SUNNY     64  60  87 CALM      30.05R
VALENTINE NWR    N/A     61  59  92 NW5         N/A
BUTTE            N/A     65  60  82 CALM        N/A
HALSEY           N/A     63  60  88 SW3         N/A
EWING            N/A     67  65  93 NW3         N/A
$$

...OBSERVATIONS IN SOUTHWEST NEBRASKA AND FAR NORTHEAST COLORADO...

CITY           SKY/WX    TMP DP  RH WIND       PRES   REMARKS
WRAY           FAIR      63  57  82 SE3       30.13F
HOLYOKE        FAIR      63  59  88 W3        30.15S
IMPERIAL       MOSUNNY   63  58  83 N8        30.13S
OGALLALA       CLOUDY    65  60  83 CALM      30.12F
NORTH PLATTE   CLOUDY    63  60  90 SW12      30.06F
MCCOOK         SUNNY     64  59  83 NW6       30.08S
LEXINGTON      SUNNY     64  61  90 W7        30.06S
STAPLETON        N/A     61  60  96 CALM        N/A
GOTHENBURG       N/A     61  57  87 W6          N/A
CALLAWAY         N/A     59  58  97 W8          N/A
$$

...OBSERVATIONS IN CENTRAL LINCOLN COUNTY AREA...

CITY           SKY/WX    TMP DP  RH WIND       PRES   REMARKS
N.P. AIRPORT   CLOUDY    63  60  90 SW12      30.06F
N.P. DOWNTOWN    N/A     65  60  82 CALM        N/A
N.P. SOUTHEAST   N/A     64  59  85 SW5         N/A
N.P. HILLCREST   N/A     63  61  92 W6          N/A
$$

...SOME OBSERVATIONS FROM AROUND THE REGION...

CITY           SKY/WX    TMP DP  RH WIND       PRES   REMARKS
DENVER         CLOUDY    64  48  56 W8        30.18S
LARAMIE        CLOUDY    54  37  52 S5        30.32S
CHEYENNE       CLOUDY    61  46  57 N9        30.28R
SCOTTSBLUFF    LGT RAIN  64  59  83 NW8       30.24R
RAPID CITY     CLOUDY    66  62  87 CALM      30.14R
BISMARCK       MOSUNNY   65  62  90 CALM      30.10R
PIERRE         SUNNY     67  63  87 NW6       30.02S
SIOUX FALLS    PTSUNNY   73  64  73 NW5       29.98R
OMAHA          CLOUDY    74  66  76 VRB5      29.96R
GRAND ISLAND   SUNNY     68  61  78 W14       30.00R
KANSAS CITY    MOSUNNY   74  68  81 E5        29.98F
WICHITA        PTSUNNY   76  72  87 E5        30.02S
OKLAHOMA CITY  PTSUNNY   76  74  93 S3        30.00S
DALLAS         CLOUDY    82  74  76 S7        29.95R
AMARILLO       MOSUNNY   70  66  87 SE5       30.11R
DODGE CITY     MOSUNNY   69  65  86 E8        30.09S
HAYS           CLOUDY    72  57  60 NW7       30.01F
GOODLAND       SUNNY     63  60  90 SE6       30.10F
$$




USA.gov is the U.S. government's official web portal to all federal, state and local government web resources and services.